Regional Weather Roundup
Issued by NWS Kansas City/Pleasant Hill, MO

Home | Current Version | Previous Version | Text Only | Print | Product List | Glossary On
Versions: 1 2 3 4 5 6 7 8 9 10 11 12 13 14 15 16 17 18 19 20 21 22 23 24 25 26 27 28 29 30 31 32 33 34 35 36 37 38 39 40 41 42 43 44 45 46 47 48 49 50
000
ASUS43 KEAX 202310
RWREAX

WEATHER ROUNDUP FOR EASTERN KANSAS AND NORTHWEST MISSOURI
NATIONAL WEATHER SERVICE KANSAS CITY/PLEASANT HILL MO
600 PM CDT MON OCT 20 2014

KSZ040-057-103>105-MOZ028-029-037-043-210000-
...KANSAS CITY METROPOLITAN AREA...

CITY           SKY/WX    TMP DP  RH WIND       PRES   REMARKS
K.C. INTL      CLEAR     69  43  38 NW5       30.03S
K.C. DOWNTOWN  CLEAR     72  43  35 N5        30.02S
LEES SUMMIT    CLEAR     68  44  42 N7        30.04R
OLATHE - IXD   CLEAR     68  48  48 N5        30.04R
OLATHE - OJC   CLEAR     72  44  36 N6        30.03R
LAWRENCE       CLEAR     72  43  35 N5        30.03S HAZE

$$

MOZ001>008-011>017-020>025-030>033-038>040-044>046-053-054-210000-
...NORTHERN AND CENTRAL MISSOURI...

CITY           SKY/WX    TMP DP  RH WIND       PRES   REMARKS
ST. JOSEPH     CLEAR     72  39  30 N5        30.03R
MOSBY          CLEAR     70  41  35 CALM      30.02S
WHITEMAN AFB   CLEAR     69  46  43 N6        30.01S
CLINTON        CLEAR     72  52  49 CALM      30.02S
SEDALIA        CLEAR     71  41  33 N6        30.03R
WARSAW         NOT AVBL
MARSHALL       CLEAR     70  45  40 N3        30.02S
CHILLICOTHE      N/A     69  45  41 CALM      30.03R
MOBERLY        CLEAR     68  39  34 NW6       30.02R
KIRKSVILLE     CLEAR     66  44  45 NW6       30.02R

$$

MOZ041-047>049-056>058-063>065-088>090-097-210000-
...EASTERN AND SOUTHERN MISSOURI...

CITY           SKY/WX    TMP DP  RH WIND       PRES   REMARKS
ST. LOUIS INTL CLEAR     68  44  42 N7        29.97R
SPIRIT OF STL  CLEAR     66  44  45 NW5       29.96R
COLUMBIA       CLEAR     67  44  43 NW7       30.00S
JEFFERSON CITY CLEAR     71  40  32 NW7       29.99R
MEXICO         CLEAR     68  46  45 NW6       30.00R
ROLLA          CLEAR     67  46  47 NW6       29.98R
LEBANON        CLEAR     70  54  56 NW5       30.01S
OSAGE BEACH    CLEAR     70  46  43 CALM      30.01R
SPRINGFIELD    CLEAR     72  54  53 NW6       30.02R
BRANSON        CLEAR     72  59  64 SW3       30.03S
NEVADA         CLEAR     70  54  56 N3        30.03S
JOPLIN         CLEAR     73  55  53 W3        30.03S
WEST PLAINS    CLEAR     70  56  61 SW7       30.00S

$$

IAZ060-094-KSZ022-034>040-054-083-096-NEZ052-066-093-210000-
...KANSAS...SOUTHEAST NEBRASKA AND IOWA...

CITY           SKY/WX    TMP DP  RH WIND       PRES   REMARKS
TOPEKA         CLEAR     72  45  37 N6        30.04R
MANHATTAN      CLEAR     73  45  36 NE3       30.04R
EMPORIA        CLEAR     73  47  39 N3        30.03S
CHANUTE        CLEAR     75  49  39 N6        30.02S
WICHITA        CLEAR     78  45  30 NE8       30.03R
OMAHA          CLEAR     70  41  34 NW5       30.04S
LINCOLN        CLEAR     72  35  25 NW3       30.05S
FALLS CITY     CLEAR     71  35  26 N5        30.03S
LAMONI         CLEAR     66  43  43 NW7       30.03R
DES MOINES     PTCLDY    68  38  33 NW8       30.01R

$$




USA.gov is the U.S. government's official web portal to all federal, state and local government web resources and services.